Tracking 31027 objects as of 19-Jul-2025
HD Live streaming from Space Station
objects crossing your sky now

FENGYUN 1C DEB

Track FENGYUN 1C DEB now!
10-day predictions


NORAD ID: 30680
Int'l Code: 1999-025AQN
Perigee: 811.4 km
Apogee: 1,312.8 km
Inclination: 99.6 °
Period: 106.3 minutes
Semi major axis: 7433 km
RCS: 0.0144 m2 (small)
Launch date: May 10, 1999
Source: People's Republic of China (PRC)
Launch site: Taiyaun Space Center, China (TSC)

Note: This is SATELLITE DEBRIS
Your satellite tracking list
ABS 3
Track 1 satellite(s)




NASA's NSSDC Master Catalog

Two Line Element Set (TLE):
1 30680U 99025AQN 25199.59132111  .00003836  00000-0  39316-2 0  9995
2 30680  99.6187 245.6085 0337294 175.4156 185.0206 13.54719738902603
Source of the keplerian elements: AFSPC